[[{"header":{"parameterUnit":"m.s-1","parameterCategory":1,"la1":30.2991,"la2":30.254,"lo1":-89.0895,"lo2":-89.0444,"dy":0.0017,"dx":0.0017,"nx":28,"ny":28,"refTime":"2023-09-19T03:00:00:Z","depth":0,"parameterNumber":2,"parameterNumberName":"U-component_of_WINDS"},"data":[0,0,0,0,0,0,0,0,0,0,0,0,0,0,0,0,0,0,0,0,0,0,0,0,0,0,0,0,0,0,0,0,0,0,0,0,0,0,0,0,0,0,0,0,0,0,0,0,0,0,0,0,0,0,0,0,0,0,-2.6752,-2.6753,0,-2.6763,-2.6764,-2.6764,-2.6677,-2.6675,-2.6672,-2.667,-2.6681,-2.6684,-2.6686,0,0,0,0,0,0,0,0,0,0,0,0,0,-2.6658,-2.666,-2.6752,-2.6753,-2.6753,-2.6763,-2.6764,-2.6764,-2.6678,-2.6675,-2.6672,-2.6669,-2.6681,-2.6684,-2.6687,0,0,0,0,0,0,0,0,0,0,0,0,0,-2.6687,-2.6661,-2.6752,-2.6711,-2.6708,-2.6763,-2.6764,-2.6764,-2.6678,-2.6675,-2.6671,-2.6668,-2.668,-2.6683,-2.6687,-2.6783,0,0,-2.6699,-2.67,0,0,0,0,0,0,0,0,-2.6686,-2.6691,-2.6717,-2.6714,-2.671,-2.6715,-2.6734,-2.677,-2.6679,-2.6689,-2.667,-2.6666,-2.6696,-2.6698,-2.6708,-2.6784,-2.6784,-2.6699,-2.6701,-2.6703,-2.6704,0,0,0,0,0,0,0,-2.6684,-2.669,-2.6757,-2.6718,-2.6713,-2.6692,-2.6693,-2.6741,-2.6713,-2.6688,-2.6682,-2.6685,-2.6693,-2.6704,-2.6708,-2.6784,-2.6699,-2.6702,-2.6705,-2.6706,-2.694,-2.6944,0,0,0,0,0,0,-2.6687,-2.6689,-2.6756,-2.6757,-2.6689,-2.6697,-2.6697,-2.6717,-2.6712,-2.6708,-2.6688,-2.668,-2.67,-2.6703,-2.6708,-2.6819,-2.6703,-2.6707,-2.6709,-2.6936,-2.6941,-2.6945,0,0,0,0,0,0,-2.6686,-2.6694,-2.6756,-2.6721,-2.6727,-2.6703,-2.6726,-2.6719,-2.673,-2.6711,-2.6706,-2.6704,-2.6697,-2.6702,-2.6765,-2.6818,-2.6708,-2.6712,-2.6931,-2.6938,-2.6943,-2.7043,0,0,0,0,0,0,-2.6683,-2.6694,-2.673,-2.6723,-2.673,-2.6813,-2.6729,-2.6722,-2.6737,-2.6728,-2.6726,-2.6722,-2.6695,-2.676,-2.6769,-2.6821,-2.6715,-2.6926,-2.6934,-2.6941,-2.7035,-2.7052,-2.7066,0,0,0,0,0,-2.668,-2.6757,-2.6732,-2.674,-2.6774,-2.6816,-2.682,-2.6787,-2.6742,-2.6778,-2.6766,-2.6722,-2.6812,-2.6767,-2.6776,-2.6831,-2.6923,-2.6932,-2.6941,-2.7028,-2.7048,-2.7066,0,0,0,0,0,0,-2.677,-2.6755,-2.6727,-2.6804,-2.6812,-2.6801,-2.6845,-2.681,-2.6831,-2.6821,-2.678,-2.678,-2.685,-2.6847,-2.6797,-2.6924,-2.6859,-2.6871,-2.6923,-2.6942,-2.6957,-2.6955,-2.6718,0,0,0,0,0,-2.6799,-2.6835,-2.682,-2.689,-2.6895,-2.687,-2.6887,-2.6862,-2.6868,-2.6871,-2.6863,-2.6872,-2.6902,-2.6922,-2.6949,-2.7035,-2.7033,-2.7078,-2.7093,-2.7106,-2.7115,-2.7161,-2.718,-2.6974,-2.6974,-2.6974,0,0,-2.6859,-2.6856,-2.688,-2.6908,-2.6911,-2.6949,-2.6873,-2.6916,-2.6944,-2.6877,-2.6935,-2.6931,-2.6938,-2.7013,-2.7046,-2.7013,-2.7173,-2.7118,-2.7128,-2.713,-2.7172,-2.7192,-2.7209,-2.698,-2.6979,-2.6978,0,0,-2.6987,-2.6988,-2.7046,-2.7051,-2.7057,-2.7041,-2.7055,-2.705,-2.7045,-2.7103,-2.7054,-2.7087,-2.714,-2.7146,-2.7157,-2.7291,-2.7251,-2.7301,-2.7381,-2.7426,-2.7442,-2.7457,-2.7503,-2.752,-2.7311,-2.7311,-2.7312,0,-2.706,-2.7114,-2.708,-2.7127,-2.714,-2.7084,-2.7142,-2.7149,-2.7164,-2.7174,-2.7138,-2.7204,-2.7204,-2.728,-2.7313,-2.7324,-2.7338,-2.7299,-2.7443,-2.7457,-2.747,-2.7513,-2.7531,-2.7317,-2.7317,-2.7316,-2.7315,0,-2.7204,-2.7243,-2.7289,-2.7305,-2.7324,-2.7377,-2.7351,-2.7375,-2.7349,-2.7336,-2.7397,-2.7397,-2.7422,-2.7439,-2.7414,-2.7512,-2.7491,-2.745,-2.7383,-2.7496,-2.7536,-2.7553,-2.7326,-2.7324,-2.7322,-2.732,0,0,-2.7384,-2.7383,-2.74,-2.7407,-2.7411,-2.7441,-2.7492,-2.7517,-2.7538,-2.7552,-2.7593,-2.764,-2.7602,-2.7614,-2.759,-2.763,-2.7735,-2.7583,-2.7583,-2.761,-2.7843,-2.7872,-2.7892,-2.771,-2.7714,-2.7716,-2.7841,0,-2.7507,-2.7593,-2.7565,-2.7651,-2.7687,-2.7636,-2.768,-2.7688,-2.7679,-2.7708,-2.7698,-2.7732,-2.768,-2.7687,-2.7724,-2.7714,-2.7781,-2.7705,-2.7747,-2.7749,-2.7744,-2.7913,-2.7943,-2.8062,-2.7857,-2.786,-2.7862,0,-2.7661,-2.7681,-2.7771,-2.7771,-2.7784,-2.7825,-2.7846,-2.7876,-2.7884,-2.7875,-2.789,-2.7858,-2.7908,-2.7845,-2.7914,-2.7863,-2.7879,-2.7878,-2.7881,-2.7881,-2.781,-2.7916,-2.8099,-2.8115,-2.7887,-2.7885,-2.7883,0,-2.7781,-2.7831,-2.7891,-2.7899,-2.7901,-2.793,-2.7932,-2.7937,-2.7955,-2.7975,-2.7986,-2.8012,-2.8025,-2.8046,-2.8022,-2.7979,-2.8095,-2.8029,-2.8087,-2.8088,-2.8111,-2.8109,-2.8297,-2.8127,-2.8127,-2.8126,-2.8126,0,-2.7919,-2.7976,-2.7946,-2.7982,-2.8045,-2.8014,-2.8077,-2.8074,-2.8079,-2.8115,-2.8073,-2.8108,-2.8075,-2.8108,-2.809,-2.8149,-2.8156,-2.815,-2.8144,-2.8152,-2.8152,-2.8159,-2.8149,-2.8131,-2.813,-2.8129,-2.8128,0,-2.8062,-2.8044,-2.8107,-2.8104,-2.8105,-2.8151,-2.8148,-2.8183,-2.8172,-2.8218,-2.8227,-2.821,-2.8246,-2.8225,-2.8262,-2.825,-2.8327,-2.8311,-2.8323,-2.8318,-2.8377,-2.837,-2.8573,-2.8597,-2.8414,-2.8416,-2.8417,0,-2.815,-2.8193,-2.8195,-2.8216,-2.8221,-2.8256,-2.8274,-2.8246,-2.8267,-2.8281,-2.8314,-2.8347,-2.837,-2.843,-2.8421,-2.845,-2.8432,-2.8502,-2.8436,-2.8443,-2.8431,-2.8427,-2.8431,-2.8514,-2.8516,-2.8518,-2.8519,0,-2.8307,-2.8297,-2.8324,-2.835,-2.8373,-2.8392,-2.8407,-2.8427,-2.84,-2.8425,-2.8461,-2.848,-2.8519,-2.8551,-2.8576,-2.8578,-2.8544,-2.8541,-2.8555,-2.8562,-2.8566,-2.8563,-2.8356,-2.8535,-2.8533,-2.8532,-2.8531,-2.8531,-2.8423,-2.8459,-2.8466,-2.8499,-2.8508,-2.8524,-2.8556,-2.8551,-2.858,-2.8609,-2.8592,-2.8634,-2.8644,-2.8673,-2.8681,-2.8714,-2.8686,-2.8708,-2.8713,-2.8718,-2.8725,-2.8564,-2.8719,-2.8719,-2.8718,-2.8718,-2.8717,0,-2.8576,-2.8579,-2.861,-2.8633,-2.8659,-2.8627,-2.8643,-2.8667,-2.8705,-2.8717,-2.8742,-2.8785,-2.8817,-2.8812,-2.8841,-2.8869,-2.8854,-2.8877,-2.8873,-2.8874,-2.8749,-2.8732,-2.8889,-2.8889,-2.8889,-2.8889,-2.8889,-2.8889,-2.8658,-2.8717,-2.8708,-2.8771,-2.8774,-2.8815,-2.8827,-2.8842,-2.8851,-2.89,-2.8927,-2.8924,-2.893,-2.896,-2.8988,-2.8986,-2.8998,-2.9027,-2.9019,-2.89,-2.8883,-2.8867,-2.8851,-2.903,-2.903,-2.9141,-2.9142,-2.9143]},{"header":{"parameterUnit":"m.s-1","parameterCategory":1,"la1":30.2991,"la2":30.254,"lo1":-89.0895,"lo2":-89.0444,"dy":0.0017,"dx":0.0017,"nx":28,"ny":28,"refTime":"2023-09-19T03:00:00:Z","depth":0,"parameterNumber":3,"parameterNumberName":"V-component_of_WINDS"},"data":[0,0,0,0,0,0,0,0,0,0,0,0,0,0,0,0,0,0,0,0,0,0,0,0,0,0,0,0,0,0,0,0,0,0,0,0,0,0,0,0,0,0,0,0,0,0,0,0,0,0,0,0,0,0,0,0,0,0,1.6045,1.6044,0,1.5982,1.5981,1.598,1.5992,1.5993,1.5994,1.5995,1.5923,1.592,1.5917,0,0,0,0,0,0,0,0,0,0,0,0,0,1.617,1.6167,1.6045,1.6044,1.6043,1.5982,1.5981,1.598,1.5991,1.5993,1.5994,1.5995,1.5924,1.5921,1.5917,0,0,0,0,0,0,0,0,0,0,0,0,0,1.6112,1.6167,1.6045,1.6042,1.6041,1.5982,1.5981,1.598,1.5991,1.5993,1.5994,1.5996,1.5925,1.5921,1.5917,1.5855,0,0,1.5903,1.5901,0,0,0,0,0,0,0,0,1.6115,1.6107,1.6043,1.6042,1.6041,1.5997,1.5999,1.5938,1.5991,1.601,1.5995,1.5997,1.5946,1.594,1.5924,1.5852,1.5849,1.5903,1.59,1.5898,1.5897,0,0,0,0,0,0,0,1.6119,1.611,1.602,1.6042,1.6041,1.6042,1.6035,1.5987,1.5969,1.6008,1.6009,1.6002,1.5945,1.5928,1.5922,1.5848,1.5903,1.5899,1.5896,1.5894,1.5724,1.5722,0,0,0,0,0,0,1.6125,1.6113,1.6022,1.6018,1.6083,1.6038,1.6031,1.6009,1.5969,1.5965,1.6,1.6002,1.5935,1.5928,1.592,1.5846,1.5898,1.5894,1.5892,1.5726,1.5723,1.5721,0,0,0,0,0,0,1.6128,1.6117,1.6024,1.6066,1.6054,1.6034,1.6009,1.6007,1.599,1.5964,1.596,1.5986,1.5936,1.5926,1.5872,1.5843,1.5892,1.5888,1.5728,1.5725,1.5722,1.5697,0,0,0,0,0,0,1.6131,1.6118,1.6095,1.6065,1.6052,1.5979,1.6007,1.6004,1.5983,1.5985,1.5949,1.5945,1.5937,1.5879,1.5868,1.5838,1.5885,1.573,1.5727,1.5723,1.57,1.5693,1.5688,0,0,0,0,0,1.6136,1.6088,1.6094,1.6083,1.6024,1.5977,1.5969,1.5962,1.598,1.5957,1.5941,1.5946,1.5849,1.5873,1.5861,1.5829,1.5732,1.5728,1.5723,1.5703,1.5695,1.5688,0,0,0,0,0,0,1.6112,1.6084,1.609,1.6032,1.6007,1.5979,1.5949,1.5954,1.5921,1.5924,1.5916,1.5907,1.5853,1.5836,1.5863,1.5769,1.5793,1.5786,1.5781,1.5773,1.5767,1.5771,1.5881,0,0,0,0,0,1.6101,1.6067,1.6044,1.5995,1.5983,1.5969,1.5948,1.5945,1.5918,1.5907,1.5886,1.5858,1.5821,1.5797,1.5761,1.5699,1.5691,1.5671,1.5665,1.566,1.5653,1.5619,1.561,1.5707,1.5707,1.5708,0,0,1.6075,1.6057,1.6035,1.599,1.5971,1.5935,1.5959,1.5919,1.5892,1.59,1.5848,1.5833,1.58,1.5742,1.5715,1.5726,1.5626,1.5655,1.5651,1.5647,1.5614,1.5605,1.5597,1.5705,1.5705,1.5706,0,0,1.6011,1.5994,1.5952,1.5933,1.5904,1.5895,1.5886,1.5857,1.5848,1.5797,1.5802,1.5769,1.5706,1.5683,1.5663,1.5594,1.5598,1.5583,1.5549,1.5516,1.5509,1.5502,1.5476,1.5467,1.5577,1.5577,1.5577,0,1.5983,1.5931,1.5929,1.589,1.5869,1.5879,1.5835,1.5816,1.5776,1.5761,1.5776,1.5698,1.5677,1.5613,1.5597,1.5581,1.5568,1.5585,1.551,1.5503,1.5497,1.5472,1.5463,1.5575,1.5575,1.5575,1.5576,0,1.5897,1.5861,1.583,1.5795,1.5771,1.573,1.5721,1.5697,1.5698,1.5687,1.5635,1.5611,1.5571,1.5556,1.5555,1.5493,1.5501,1.5513,1.5536,1.5486,1.5463,1.5453,1.5572,1.5573,1.5574,1.5574,0,0,1.5812,1.5779,1.5768,1.5752,1.5723,1.5694,1.5654,1.5618,1.5597,1.557,1.5535,1.5483,1.5495,1.5473,1.5469,1.5441,1.5387,1.5456,1.5455,1.5443,1.5316,1.5306,1.5295,1.5391,1.5389,1.5388,1.5319,0,1.5744,1.5674,1.5673,1.5608,1.5575,1.5585,1.5549,1.5527,1.5517,1.5486,1.5474,1.5437,1.5456,1.5442,1.5415,1.5399,1.5361,1.5405,1.5356,1.5354,1.5361,1.5283,1.5271,1.5207,1.531,1.5308,1.5307,0,1.5654,1.5628,1.556,1.5538,1.5524,1.5492,1.546,1.5431,1.5405,1.54,1.5377,1.5379,1.5336,1.5364,1.5305,1.5334,1.5315,1.5305,1.5302,1.5295,1.5325,1.5272,1.5187,1.5176,1.5293,1.5294,1.5295,0,1.5597,1.5545,1.5498,1.5485,1.5458,1.5435,1.5422,1.5399,1.5379,1.535,1.5336,1.5303,1.5283,1.5257,1.5249,1.527,1.519,1.5217,1.5182,1.5182,1.5162,1.5163,1.507,1.5153,1.5153,1.5154,1.5154,0,1.552,1.5478,1.5473,1.5443,1.5397,1.5396,1.535,1.5338,1.5319,1.5286,1.5293,1.5263,1.5256,1.5223,1.5217,1.5169,1.516,1.5153,1.5152,1.5151,1.5152,1.5136,1.514,1.5151,1.5152,1.5152,1.5153,0,1.5447,1.5442,1.5392,1.5372,1.5366,1.5332,1.5314,1.5286,1.5279,1.5238,1.5228,1.5215,1.5178,1.5169,1.5123,1.512,1.5062,1.5065,1.5071,1.507,1.5036,1.5038,1.4928,1.4913,1.5007,1.5007,1.5006,0,1.5396,1.5365,1.5343,1.5323,1.5311,1.5278,1.5258,1.5257,1.5235,1.5206,1.5181,1.5146,1.5117,1.5056,1.5042,1.5007,1.5009,1.4973,1.5003,1.5005,1.5006,1.5008,1.5004,1.4966,1.4965,1.4964,1.4963,0,1.5307,1.5307,1.5279,1.5251,1.5227,1.5204,1.5182,1.5165,1.5161,1.5136,1.51,1.5078,1.5034,1.4997,1.4964,1.4949,1.4954,1.4955,1.4944,1.4942,1.4946,1.4942,1.5052,1.4956,1.4957,1.4957,1.4958,1.4958,1.5243,1.5216,1.5197,1.5165,1.515,1.5129,1.5102,1.5093,1.5064,1.5029,1.503,1.499,1.4967,1.4923,1.4907,1.4875,1.4885,1.4871,1.4867,1.4863,1.4859,1.4954,1.4869,1.4869,1.4869,1.4869,1.4869,0,1.5153,1.5142,1.5114,1.5084,1.506,1.5072,1.5048,1.5026,1.4992,1.4971,1.4944,1.4903,1.4869,1.4853,1.4819,1.4796,1.4798,1.4787,1.4787,1.4784,1.4852,1.4864,1.4786,1.4786,1.4786,1.4787,1.4787,1.4787,1.5103,1.5058,1.5056,1.5003,1.4992,1.4955,1.4941,1.4922,1.4906,1.4861,1.4833,1.4825,1.4806,1.4772,1.4741,1.4737,1.4723,1.471,1.4708,1.4771,1.4779,1.4787,1.4798,1.4708,1.4708,1.4642,1.4641,1.4641]}]]